Location: Canyam�s
(41.5996°N, 2.4450°E)
Time: 22:14:38
(UTC+00:00)

Cosmos 1656 - Pass Details

Date: 06 June 2020
Orbit: 800 x 848 km, 71.1° (Epoch: 11 July)

Event Time Altitude Azimuth Distance (km) Brightness Sun altitude
Exits shadow 23:27:56 70° 150° (SSE) 890 3.5 -25.4°
Maximum altitude 23:28:23 74° 111° (ESE) 871 3.6 -25.4°
Drops below altitude 10° 23:33:58 10° 27° (NNE) 2,441 6.8 -25.5°
Sets 23:36:24 0° 26° (NNE) 3,371 7.8 -25.6°
